Regional Weather Roundup
Issued by NWS Charleston, SC

Current Version | Previous Version | Graphics & Text | Print | Product List | Glossary On
Versions: 1 2 3 4 5 6 7 8 9 10 11 12 13 14 15 16 17 18 19 20 21 22 23 24 25 26 27 28 29 30 31 32 33 34 35 36 37 38 39 40 41 42 43 44 45 46 47 48 49 50
000
ASUS42 KCHS 232325
RWRCHS

REGIONAL WEATHER ROUNDUP
NATIONAL WEATHER SERVICE CHARLESTON SC
700 PM EDT WED JUL 23 2014

NOTE: "FAIR" INDICATES FEW OR NO CLOUDS BELOW 12,000 FEET WITH NO
SIGNIFICANT WEATHER AND/OR OBSTRUCTIONS TO VISIBILITY.

NOT ALL STATIONS ARE QUALITY CONTROLLED BY THE NATIONAL
WEATHER SERVICE. USE DATA WITH CAUTION...ESPECIALLY
DEWPOINT OBSERVATIONS.

SCZ027-030-031-034>040-042>050-240000-
...SOUTH CAROLINA...

CITY           SKY/WX    TMP DP  RH WIND       PRES   REMARKS
N CHARLESTON   CLOUDY    81  76  84 CALM      29.99F
WATERFRONT PRK   N/A     82 N/A N/A S3G9        N/A
FORT JOHNSON   NOT AVBL
MOUNT PLEASANT FAIR      81  75  83 CALM      29.99F
JOHNS ISLAND   CLEAR     84  70  61 SW8       29.99F
PINOPOLIS        N/A     91  73  55 SE5       29.92F HX 100
MONCKS CORNER    N/A     86  77  74 S12       29.98F HX  97
SUMMERVILLE    FAIR      86  77  74 S3        29.99F HX  97
BEAUFORT MCAS  PTSUNNY   86  76  71 S5        29.98F HX  96
BEAUFORT ARPT  FAIR      84  77  79 S7        29.98F HX  94
HILTON HEAD IS SUNNY     84  75  74 SE6       30.01F HX  92
GEORGETOWN     NOT AVBL
WALTERBORO     PTCLDY    82  68  61 SE6       29.99S
ORANGEBURG     SUNNY     90  70  51 S7        29.97S HX  95
BARNWELL       FAIR      90  70  51 S7        29.97F HX  95
AIKEN          MOCLDY    86  73  66 S5        30.01S HX  93
MANNING        FAIR      86  70  58 S5        29.96F HX  90
KINGSTREE      NOT AVBL
COLUMBIA       MOSUNNY   92  69  47 SW9       29.96S HX  97
SUMTER         SUNNY     90  74  60 SW9       29.95F HX  99
FLORENCE       MOSUNNY   88  75  65 S12       29.96S HX  97
MYRTLE BEACH   MOSUNNY   82  75  78 S9        29.98F
N MYRTLE BEACH PTSUNNY   83  75  77 SW16      29.98F HX  90

$$

GAZ063-065-086>088-099>101-113>116-118-119-134-136>141-150-240000-
...GEORGIA...

CITY           SKY/WX    TMP DP  RH WIND       PRES   REMARKS
SAVANNAH ARPT  PTSUNNY   88  75  65 S10       29.99F HX  97
HUNTER AAF     MOSUNNY   85  76  75 S8        29.98F HX  94
FORT STEWART   MOSUNNY   88  77  69 SE7       29.97F HX  99
STATESBORO     NOT AVBL
SYLVANIA       CLEAR     89  77  67 CALM      29.98F HX 101
CLAXTON        FAIR      90  77  66 CALM      29.97F HX 102
THOMSON        SUNNY     89  78  70 SW3       30.01F HX 103
AUGUSTA-BUSH   SUNNY     89  70  53 S9        29.95F HX  94
AUGUSTA-DANIEL MOSUNNY   88  72  58 SW5       29.98S HX  94
SWAINSBORO     FAIR      91  72  52 SW5       29.98F HX  98
VIDALIA          N/A     90  70  51 SW5       29.98S HX  95
ALMA           SUNNY     92  64  39 W7        29.97F HX  93
WAYCROSS       SUNNY     95  72  47 W6        29.97F HX 103
JESUP          NOT AVBL
BRUNSWICK      MOSUNNY   86  73  66 CALM      30.00F HX  93
SAINT SIMONS   MOSUNNY   84  75  74 SE9       30.00S HX  92

$$

SCZ027-028-034-036>038-045-046-048>050-GAZ119-141-240000-
...LAKE AND SUPPLEMENTAL COASTAL OBSERVATIONS...

STATION/POSITION TIME  TEMP    WIND        PRES    WAVE   SWELL
                       AIR SEA DIR/SP/G            HT/PER HT/PER/DIR
                 (UTC) (F)     (DEG/KT/KT) (MB)    (FT/S) (FT/S/D)
UPR LAKE MARION  NOT AVBL
WINYAH BAY       2300   80     220/  6     1015.0S
LAKE MURRAY      2300   88     220/  9/ 12 1013.9S
ACE BASIN NERRS  2300   85        CALM     1016.0S
FORT PULASKI     2300   84     150/  5/  9 1015.9F
SAPELO ISLAND    2300   88     170/ 11     1017.0S

$$

ANZ835-935-AMZ111-154-330-350-352-354-374-450-454-472-240000-
...C-MAN AND BUOY OBSERVATIONS...

STATION/POSITION TIME  TEMP    WIND        PRES    WAVE   SWELL
                       AIR SEA DIR/SP/G            HT/PER HT/PER/DIR
                 (UTC) (F)     (DEG/KT/KT) (MB)    (FT/S) (FT/S/D)
FOLLY BEACH CMAN 2300   83     200/ 10/ 11 1016.1F
BUOY 41004       2300   82 83  200/ 12/ 12 1015.3F   3/ 6   2/ 6
BUOY 41008       2300   84 85  160/ 12/ 14 1015.5F   3/ 7   2/100/ 7
5E ST. MARYS GA  2300      85                N/A     3/ 7
FRYING PAN BUOY  NOT AVBL
BUOY 41025       2300          VRB 21/ 25  1013.4F   4/ 4   2/170/ 7
CAPE LOOKOUT NC  2300   80     220/ 12/ 15 1014.5F
BUOY 41002       2249   82 82  220/ 16/ 19 1018.6S   4/ 5   2/120/ 8
BUOY 41010       2300   81 84  190/  8/ 10 1017.5F   3/ 5   3/170/ 5
BUOY 41012       NOT AVBL
ST AUGUSTINE FL  2300   83     150/ 14/ 15 1016.7F
CAPERS NEARSHORE 2200   83     200/ 10/ 12   N/A
FRIPP NEARSHORE  NOT AVBL


$$



USA.gov is the U.S. government's official web portal to all federal, state and local government web resources and services.